User: anonymous
Location: Valdosta
(30.8330°N, 83.2790°W)
Time: 09:02:47
(UTC-04:00)
Language:

Oscar 19 - Orbit

View from above orbital plane
View from above orbital plane
View from above satellite
View from above satellite

Ground track
Ground track

The orbit data is extracted from the following two-line orbital elements,

1 20442U 90005G   14292.39804512  .00000359  00000-0  14807-3 0   874
2 20442 098.4879 227.7243 0012782 137.5911 222.6263 14.32605045292469
Epoch (UTC): 19 October 2014 09:33:11
Eccentricity: 0.0012782
inclination: 98.4879°
perigee height: 774 km
apogee height: 792 km
right ascension of ascending node: 227.7243°
argument of perigee: 137.5911°
revolutions per day: 14.32605045
mean anomaly at epoch: 222.6263°
orbit number at epoch: 29246

The dashed part of the orbit path shows where the satellite is in the earth's shadow,  

DLR